Starlink 31776

operational
NORAD ID: 59603 Int'l Des: 2024-080 Owner: SPXS Country: US Constellation: starlink
LEOCIRCULAR

About Starlink 31776

Description loading...

Live Position

Loading 3D Globe...

Upcoming Passes

Altitude History

Altitude vs Time

uPlot chart will show altitude changes over time

Two-Line Element Set

1 59603U 24080C 25303.72770549 .00020959 00000-0 76817-3 0 9998
2 59603 43.0006 55.5860 0001116 267.8633 92.2091 15.27614814 84612
Epoch: Oct 30, 2025 • Age: 26 hours

Current Status

Altitude 486.6 km
Velocity 7.63 km/s
Sub-Earth Point 42.80°N, 176.56°W
Launch Date Apr 28, 2024
Age 1.5 years
Type internet

Technical Details

Classification Payload
Mass 730.00 kg
Dry Mass 700.00 kg
Total Mass 730.00 kg
Length 0.30 m
Diameter 4.10 m
Span 29.00 m
Shape Box + pan
Manufacturer SPXS
Bus Type Starlink V2M
Phase Status In Orbit
Owner/State SPXS/US

Large Constellations

Loading constellations...